PLEIADES NEO 4

Last updated on Thu Jul 03 2025 00:02:30 GMT+0000 (Coordinated Universal Time)

1 49070U 21073E 25183.60377961 .00000837 00000+0 11303-3 0 9999 2 49070 97.8950 258.3833 0001326 94.7372 265.3993 14.81673126209609
UTC large
Height (km)
Speed (km/s)
/
Latitude / Longitude
Inclination (degrees)
Orbital Period (minutes)
Azimuth
Elevation
Range (km)
Doppler Factor

Next 0 passes for location: London (51.5072 / 0.1276)

Sorry there are no passes over London.